TimeCDT,TemperatureF,Dew PointF,Humidity,Sea Level PressureIn,VisibilityMPH,Wind Direction,Wind SpeedMPH,Gust SpeedMPH,PrecipitationIn,Events,Conditions,WindDirDegrees,DateUTC
12:54 AM,34.0,23.0,64,30.14,10.0,SE,5.8,-,N/A,,Clear,140,2011-10-30 05:54:00
1:54 AM,33.1,24.1,70,30.14,10.0,SSE,5.8,-,N/A,,Clear,160,2011-10-30 06:54:00
2:54 AM,34.0,25.0,70,30.14,10.0,SSE,5.8,-,N/A,,Clear,150,2011-10-30 07:54:00
3:54 AM,37.9,27.0,65,30.14,10.0,SSE,6.9,-,N/A,,Clear,150,2011-10-30 08:54:00
4:54 AM,41.0,28.0,60,30.13,10.0,SSE,10.4,-,N/A,,Clear,160,2011-10-30 09:54:00
5:54 AM,42.8,28.4,57,30.12,10.0,SSE,11.5,-,N/A,,Clear,160,2011-10-30 10:54:00
6:54 AM,42.8,28.4,57,30.12,10.0,SSE,11.5,-,N/A,,Clear,160,2011-10-30 11:54:00
7:54 AM,44.1,28.0,53,30.14,10.0,South,13.8,-,N/A,,Clear,180,2011-10-30 12:54:00
8:54 AM,46.0,30.0,54,30.13,10.0,South,13.8,-,N/A,,Clear,180,2011-10-30 13:54:00
9:54 AM,53.1,30.0,41,30.13,10.0,SSW,18.4,26.5,N/A,,Clear,200,2011-10-30 14:54:00
10:54 AM,54.0,30.9,41,30.10,10.0,SSW,16.1,-,N/A,,Clear,200,2011-10-30 15:54:00
11:54 AM,57.9,32.0,37,30.09,10.0,SSW,23.0,27.6,N/A,,Mostly Cloudy,200,2011-10-30 16:54:00
12:54 PM,60.1,32.0,35,30.06,10.0,SW,21.9,31.1,N/A,,Mostly Cloudy,220,2011-10-30 17:54:00
1:54 PM,57.0,33.1,40,30.04,10.0,SSW,15.0,21.9,0.00,,Overcast,200,2011-10-30 18:54:00
2:54 PM,55.9,35.1,45,30.02,10.0,SSW,20.7,29.9,0.00,,Overcast,200,2011-10-30 19:54:00
3:54 PM,54.0,37.9,55,30.04,10.0,SSW,12.7,-,0.00,Rain,Light Rain,200,2011-10-30 20:54:00
4:54 PM,52.0,39.0,61,30.03,10.0,SSW,16.1,27.6,0.00,Rain,Light Rain,200,2011-10-30 21:54:00
5:54 PM,51.8,39.2,62,30.02,10.0,SSW,4.6,-,N/A,,Overcast,210,2011-10-30 22:54:00
6:54 PM,51.1,39.0,63,30.02,10.0,ESE,5.8,-,0.00,Rain,Light Rain,120,2011-10-30 23:54:00
7:54 PM,53.1,36.0,52,30.01,10.0,South,13.8,19.6,0.00,,Overcast,180,2011-10-31 00:54:00
8:54 PM,51.1,39.9,66,30.00,10.0,South,12.7,-,0.02,Rain,Light Rain,170,2011-10-31 01:54:00
9:54 PM,50.0,39.0,66,30.01,10.0,SSW,8.1,-,0.00,Rain,Light Rain,210,2011-10-31 02:54:00
10:54 PM,48.0,43.0,83,30.02,9.0,North,8.1,-,0.02,Rain,Light Rain,350,2011-10-31 03:54:00
11:54 PM,46.0,43.0,89,30.03,10.0,Calm,Calm,-,0.01,,Mostly Cloudy,0,2011-10-31 04:54:00